Weather Roundup
Issued by NWS Chicago, IL

Home | Current Version | Previous Version | Graphics & Text | Print | Product List | Glossary On
Versions: 1 2 3 4 5 6 7 8 9 10 11 12 13 14 15 16 17 18 19 20 21 22 23 24 25 26 27 28 29 30 31 32 33 34 35 36 37 38 39 40 41 42 43 44 45 46 47 48 49 50
000
NZUS59 KLOT 280007
HRRLOT

CHICAGO AREA WEATHER ROUNDUP
NATIONAL WEATHER SERVICE CHICAGO/ROMEOVILLE IL
700 PM CDT THU APR 27 2017

NOTE: "FAIR" INDICATES FEW OR NO CLOUDS BELOW 12,000 FEET WITH NO
SIGNIFICANT WEATHER AND/OR OBSTRUCTIONS TO VISIBILITY.

* THESE STATIONS ARE NOT UNDER NWS QUALITY CONTROL. THEY ALSO MAY NOT
  REPORT WEATHER SUCH AS PRECIPITATION OR FOG.

ILZ005-006-012>014-019>023-280100-
NORTHEAST ILLINOIS

CITY           SKY/WX    TMP DP  RH WIND       PRES   REMARKS
OHARE          CLOUDY    46  36  68 SW16G25   29.74R
6HR MIN TEMP:  45; 6HR MAX TEMP:  46;

MIDWAY         CLOUDY    47  38  71 W16G23    29.75R
6HR MIN TEMP:  46; 6HR MAX TEMP:  48;

AURORA         CLOUDY    45  37  73 W18       29.76R
6HR MIN TEMP:  45; 6HR MAX TEMP:  46;

LANSING*       CLOUDY    47  42  81 W14       29.76R
JOLIET*        CLOUDY    48  40  75 W6        29.77R
WAUKEGAN       CLOUDY    44  36  73 SW12G20   29.71R
6HR MIN TEMP:  43; 6HR MAX TEMP:  46;

DUPAGE AIRPORT CLOUDY    44  37  76 W14G24    29.75R
6HR MIN TEMP:  44; 6HR MAX TEMP:  45;

WHEELING       CLOUDY    45  37  73 SW13      29.74R
6HR MIN TEMP:  44; 6HR MAX TEMP:  46;

KANKAKEE*      CLOUDY    48  40  72 SW10      29.79R
MORRIS*        CLOUDY    46  39  76 W12G18    29.76R
LEWIS AIRPORT* CLOUDY    45  41  87 W12G23    29.77R
NORTHERLY ISL    N/A     47  36  65 SW13        N/A
$$

WIZ051-052-058>065-066-070>072-280100-
SOUTHEAST WISCONSIN

CITY           SKY/WX    TMP DP  RH WIND       PRES   REMARKS
MILWAUKEE      CLOUDY    45  37  73 SW16G22   29.68R
6HR MIN TEMP:  44; 6HR MAX TEMP:  47; 6HR PCP: TRACE;

KENOSHA*       CLOUDY    43  35  73 SW15G23   29.70R
RACINE*        CLOUDY    44  34  67 SW10G21   29.71R
WAUKESHA       CLOUDY    41  34  75 SW15G21   29.68R
WEST BEND      CLOUDY    41  39  93 SW14      29.65R
$$

INZ001>003-010>013-019-020-280100-
NORTHWEST INDIANA

CITY           SKY/WX    TMP DP  RH WIND       PRES   REMARKS
GARY*          CLOUDY    50  39  66 SW14G26   29.75S
MICHIGAN CITY* NOT AVBL
RENSSELAER*    NOT AVBL
VALPARAISO     CLOUDY    49  41  74 W15       29.76R
$$

LMZ740>746-280100-
SOUTHERN LAKE MICHIGAN

STATION/POSITION TIME  SKY/WX   TEMP WIND        PRES    VSBY
                                AIR  DIR/SP/G
                 (UTC)          (F)  (DEG/KT/KT) (MB)    (MI)
HARRISON CRIB    2330            47  240/ 17/ 23   N/A
BURNHAM HARBOR   0000            47  230/ 11/ 15   N/A
CALUMET HARBOR   2336            47  240/  8/ 15 1006.6R
BURNS HARBOR     2340            49  230/  9/ 22 1007.8R
MICHIGAN CITY    2340            48  210/ 17/ 19   N/A
$$

ABBREVIATIONS USED IN REMARKS
   TC - TEMPERATURE IN CELSIUS
  WCI - WIND CHILL INDEX
   HX - HEAT INDEX
  VSB - VISIBILITY
$$




USA.gov is the U.S. government's official web portal to all federal, state and local government web resources and services.